Time,TemperatureF,DewpointF,PressureIn,WindDirection,WindDirectionDegrees,WindSpeedMPH,WindSpeedGustMPH,Humidity,HourlyPrecipIn,Conditions,Clouds,dailyrainin,SolarRadiationWatts/m^2,SoftwareType,DateUTC
2014-09-01 00:00:00,68.5,67.8,29.92,South,173,0.0,0.0,98,0.00,,,1.94,0,HR-IXPWINDi_r2_v1.2.,2014-09-01 04:00:00,
2014-09-01 00:01:00,68.5,67.8,29.92,South,173,0.0,0.0,98,0.00,,,1.94,0,HR-IXPWINDi_r2_v1.2.,2014-09-01 04:01:00,
2014-09-01 00:06:00,68.4,67.7,29.91,South,173,0.0,0.0,98,0.00,,,0.00,0,HR-IXPWINDi_r2_v1.2.,2014-09-01 04:06:00,
2014-09-01 00:11:00,68.3,67.3,29.91,South,173,0.0,0.0,97,0.00,,,0.00,0,HR-IXPWINDi_r2_v1.2.,2014-09-01 04:11:00,
2014-09-01 00:16:00,68.3,67.3,29.91,South,173,0.0,0.0,97,0.00,,,0.00,0,HR-IXPWINDi_r2_v1.2.,2014-09-01 04:16:00,
2014-09-01 00:21:00,68.3,67.6,29.91,South,173,0.0,0.0,98,0.00,,,0.00,0,HR-IXPWINDi_r2_v1.2.,2014-09-01 04:21:00,
2014-09-01 00:26:00,68.3,67.6,29.91,South,173,0.0,0.0,98,0.00,,,0.00,0,HR-IXPWINDi_r2_v1.2.,2014-09-01 04:26:00,
2014-09-01 00:31:00,68.3,67.6,29.91,South,173,0.0,0.0,98,0.00,,,0.00,0,HR-IXPWINDi_r2_v1.2.,2014-09-01 04:31:00,
2014-09-01 00:36:00,68.3,67.6,29.91,South,173,0.0,0.0,98,0.00,,,0.00,0,HR-IXPWINDi_r2_v1.2.,2014-09-01 04:36:00,
2014-09-01 00:42:00,68.4,67.7,29.91,South,173,0.0,0.0,98,0.00,,,0.00,0,HR-IXPWINDi_r2_v1.2.,2014-09-01 04:42:00,
2014-09-01 00:47:00,68.5,67.8,29.91,South,173,0.0,0.0,98,0.00,,,0.00,0,HR-IXPWINDi_r2_v1.2.,2014-09-01 04:47:00,
2014-09-01 00:52:00,68.5,67.8,29.91,South,173,0.0,0.0,98,0.00,,,0.00,0,HR-IXPWINDi_r2_v1.2.,2014-09-01 04:52:00,
2014-09-01 00:57:00,68.6,67.9,29.91,South,173,0.0,0.0,98,0.00,,,0.00,0,HR-IXPWINDi_r2_v1.2.,2014-09-01 04:57:00,
2014-09-01 01:03:00,68.6,67.9,29.91,South,173,0.0,0.0,98,0.00,,,0.00,0,HR-IXPWINDi_r2_v1.2.,2014-09-01 05:03:00,
2014-09-01 01:08:00,68.7,68.0,29.91,South,187,0.0,5.0,98,0.00,,,0.00,0,HR-IXPWINDi_r2_v1.2.,2014-09-01 05:08:00,
2014-09-01 01:13:00,68.7,68.0,29.91,South,173,0.0,6.0,98,0.00,,,0.00,0,HR-IXPWINDi_r2_v1.2.,2014-09-01 05:13:00,
2014-09-01 01:18:00,68.8,68.1,29.91,South,191,0.0,6.0,98,0.00,,,0.00,0,HR-IXPWINDi_r2_v1.2.,2014-09-01 05:18:00,
2014-09-01 01:23:00,68.9,68.2,29.91,South,187,0.0,3.0,98,0.00,,,0.00,0,HR-IXPWINDi_r2_v1.2.,2014-09-01 05:23:00,
2014-09-01 01:28:00,68.9,68.2,29.91,South,189,0.0,3.0,98,0.00,,,0.00,0,HR-IXPWINDi_r2_v1.2.,2014-09-01 05:28:00,
2014-09-01 01:34:00,69.0,68.3,29.91,SSW,198,0.0,5.0,98,0.00,,,0.00,0,HR-IXPWINDi_r2_v1.2.,2014-09-01 05:34:00,
2014-09-01 01:39:00,69.0,68.3,29.92,SSW,201,0.0,5.0,98,0.00,,,0.00,0,HR-IXPWINDi_r2_v1.2.,2014-09-01 05:39:00,
2014-09-01 01:44:00,69.1,68.4,29.92,SSW,205,0.0,5.0,98,0.00,,,0.00,0,HR-IXPWINDi_r2_v1.2.,2014-09-01 05:44:00,
2014-09-01 01:49:00,69.2,68.5,29.92,SSW,213,0.0,5.0,98,0.00,,,0.00,0,HR-IXPWINDi_r2_v1.2.,2014-09-01 05:49:00,
2014-09-01 01:55:00,69.2,68.8,29.92,SW,215,0.0,5.0,99,0.00,,,0.00,0,HR-IXPWINDi_r2_v1.2.,2014-09-01 05:55:00,
2014-09-01 02:00:00,69.2,68.8,29.92,SSW,201,0.0,5.0,99,0.00,,,0.00,0,HR-IXPWINDi_r2_v1.2.,2014-09-01 06:00:00,
2014-09-01 02:05:00,69.3,68.9,29.92,South,190,3.0,7.0,99,0.00,,,0.00,0,HR-IXPWINDi_r2_v1.2.,2014-09-01 06:05:00,
2014-09-01 02:10:00,69.3,68.9,29.92,SSW,211,0.0,7.0,99,0.00,,,0.00,0,HR-IXPWINDi_r2_v1.2.,2014-09-01 06:10:00,
2014-09-01 02:16:00,69.4,69.0,29.92,SSW,213,0.0,7.0,99,0.00,,,0.00,0,HR-IXPWINDi_r2_v1.2.,2014-09-01 06:16:00,
2014-09-01 02:21:00,69.4,69.0,29.92,SW,228,0.0,7.0,99,0.00,,,0.00,0,HR-IXPWINDi_r2_v1.2.,2014-09-01 06:21:00,
2014-09-01 02:26:00,69.4,69.0,29.93,SSW,209,0.0,7.0,99,0.00,,,0.00,0,HR-IXPWINDi_r2_v1.2.,2014-09-01 06:26:00,
2014-09-01 02:31:00,69.4,69.0,29.93,SSW,211,0.0,7.0,99,0.00,,,0.00,0,HR-IXPWINDi_r2_v1.2.,2014-09-01 06:31:00,
2014-09-01 02:37:00,69.4,69.0,29.93,SW,227,0.0,7.0,99,0.00,,,0.00,0,HR-IXPWINDi_r2_v1.2.,2014-09-01 06:37:00,
2014-09-01 02:42:00,69.4,69.0,29.93,SW,226,0.0,6.0,99,0.00,,,0.00,0,HR-IXPWINDi_r2_v1.2.,2014-09-01 06:42:00,
2014-09-01 02:47:00,69.5,69.1,29.93,SW,226,0.0,6.0,99,0.00,,,0.00,0,HR-IXPWINDi_r2_v1.2.,2014-09-01 06:47:00,
2014-09-01 02:52:00,69.5,69.1,29.92,SSW,207,0.0,7.0,99,0.00,,,0.00,0,HR-IXPWINDi_r2_v1.2.,2014-09-01 06:52:00,
2014-09-01 02:57:00,69.5,69.1,29.92,SW,219,0.0,7.0,99,0.00,,,0.00,0,HR-IXPWINDi_r2_v1.2.,2014-09-01 06:57:00,
2014-09-01 03:03:00,69.6,69.2,29.92,SW,226,0.0,7.0,99,0.00,,,0.00,0,HR-IXPWINDi_r2_v1.2.,2014-09-01 07:03:00,
2014-09-01 03:08:00,69.6,69.2,29.92,SW,222,0.0,6.0,99,0.00,,,0.00,0,HR-IXPWINDi_r2_v1.2.,2014-09-01 07:08:00,
2014-09-01 03:13:00,69.7,69.3,29.92,SW,223,0.0,5.0,99,0.00,,,0.00,0,HR-IXPWINDi_r2_v1.2.,2014-09-01 07:13:00,
2014-09-01 03:18:00,69.7,69.3,29.92,SW,221,0.0,5.0,99,0.00,,,0.00,0,HR-IXPWINDi_r2_v1.2.,2014-09-01 07:18:00,
2014-09-01 03:23:00,69.7,69.3,29.92,SW,221,0.0,3.0,99,0.00,,,0.00,0,HR-IXPWINDi_r2_v1.2.,2014-09-01 07:23:00,
2014-09-01 03:29:00,69.8,69.4,29.92,SW,221,0.0,4.0,99,0.00,,,0.00,0,HR-IXPWINDi_r2_v1.2.,2014-09-01 07:29:00,
2014-09-01 03:34:00,69.8,69.4,29.93,SW,231,0.0,7.0,99,0.00,,,0.00,0,HR-IXPWINDi_r2_v1.2.,2014-09-01 07:34:00,
2014-09-01 03:39:00,69.8,69.4,29.92,SW,229,0.0,7.0,99,0.00,,,0.00,0,HR-IXPWINDi_r2_v1.2.,2014-09-01 07:39:00,
2014-09-01 03:44:00,69.9,69.5,29.92,SW,229,0.0,6.0,99,0.00,,,0.00,0,HR-IXPWINDi_r2_v1.2.,2014-09-01 07:44:00,
2014-09-01 03:50:00,69.9,69.5,29.92,SW,229,0.0,1.0,99,0.00,,,0.00,0,HR-IXPWINDi_r2_v1.2.,2014-09-01 07:50:00,
2014-09-01 03:55:00,69.9,69.5,29.91,SW,229,0.0,5.0,99,0.00,,,0.00,0,HR-IXPWINDi_r2_v1.2.,2014-09-01 07:55:00,
2014-09-01 04:00:00,69.9,69.5,29.91,SW,229,0.0,5.0,99,0.00,,,0.00,0,HR-IXPWINDi_r2_v1.2.,2014-09-01 08:00:00,
2014-09-01 04:06:00,70.0,69.6,29.92,SW,229,0.0,1.0,99,0.00,,,0.00,0,HR-IXPWINDi_r2_v1.2.,2014-09-01 08:06:00,
2014-09-01 04:11:00,70.0,69.6,29.92,SW,229,0.0,0.0,99,0.00,,,0.00,0,HR-IXPWINDi_r2_v1.2.,2014-09-01 08:11:00,
2014-09-01 04:16:00,70.0,69.6,29.92,SW,229,0.0,0.0,99,0.00,,,0.00,0,HR-IXPWINDi_r2_v1.2.,2014-09-01 08:16:00,
2014-09-01 04:21:00,70.1,69.7,29.91,SW,229,0.0,3.0,99,0.00,,,0.00,0,HR-IXPWINDi_r2_v1.2.,2014-09-01 08:21:00,
2014-09-01 04:26:00,70.1,69.7,29.91,SW,229,0.0,3.0,99,0.00,,,0.00,0,HR-IXPWINDi_r2_v1.2.,2014-09-01 08:26:00,
2014-09-01 04:31:00,70.1,69.7,29.91,SW,229,0.0,0.0,99,0.00,,,0.00,0,HR-IXPWINDi_r2_v1.2.,2014-09-01 08:31:00,
2014-09-01 04:37:00,70.1,69.7,29.92,SW,229,0.0,4.0,99,0.00,,,0.00,0,HR-IXPWINDi_r2_v1.2.,2014-09-01 08:37:00,
2014-09-01 04:42:00,70.1,69.7,29.92,SW,229,0.0,5.0,99,0.00,,,0.00,0,HR-IXPWINDi_r2_v1.2.,2014-09-01 08:42:00,
2014-09-01 04:47:00,70.1,69.7,29.92,SW,227,0.0,6.0,99,0.00,,,0.00,0,HR-IXPWINDi_r2_v1.2.,2014-09-01 08:47:00,
2014-09-01 04:52:00,70.1,69.7,29.92,SW,218,0.0,6.0,99,0.00,,,0.00,0,HR-IXPWINDi_r2_v1.2.,2014-09-01 08:52:00,
2014-09-01 04:57:00,70.2,69.8,29.92,SW,218,0.0,5.0,99,0.00,,,0.00,0,HR-IXPWINDi_r2_v1.2.,2014-09-01 08:57:00,
2014-09-01 05:02:00,70.2,69.8,29.92,SW,216,0.0,4.0,99,0.00,,,0.00,0,HR-IXPWINDi_r2_v1.2.,2014-09-01 09:02:00,
2014-09-01 05:08:00,70.3,69.9,29.92,SW,215,0.0,5.0,99,0.00,,,0.00,0,HR-IXPWINDi_r2_v1.2.,2014-09-01 09:08:00,
2014-09-01 05:13:00,70.3,69.9,29.91,SW,215,0.0,5.0,99,0.00,,,0.00,0,HR-IXPWINDi_r2_v1.2.,2014-09-01 09:13:00,
2014-09-01 05:18:00,70.3,69.9,29.91,SSW,206,0.0,5.0,99,0.00,,,0.00,0,HR-IXPWINDi_r2_v1.2.,2014-09-01 09:18:00,
2014-09-01 05:23:00,70.4,70.0,29.91,SSW,209,0.0,6.0,99,0.00,,,0.00,0,HR-IXPWINDi_r2_v1.2.,2014-09-01 09:23:00,
2014-09-01 05:29:00,70.5,70.1,29.91,SSW,209,0.0,6.0,99,0.00,,,0.00,0,HR-IXPWINDi_r2_v1.2.,2014-09-01 09:29:00,
2014-09-01 05:34:00,70.5,70.1,29.92,SSW,213,0.0,6.0,99,0.00,,,0.00,0,HR-IXPWINDi_r2_v1.2.,2014-09-01 09:34:00,
2014-09-01 05:39:00,70.6,70.2,29.92,SW,217,0.0,6.0,99,0.00,,,0.00,0,HR-IXPWINDi_r2_v1.2.,2014-09-01 09:39:00,
2014-09-01 05:44:00,70.6,70.2,29.92,SW,215,0.0,7.0,99,0.00,,,0.00,0,HR-IXPWINDi_r2_v1.2.,2014-09-01 09:44:00,
2014-09-01 05:49:00,70.6,70.2,29.92,SW,216,0.0,7.0,99,0.00,,,0.00,0,HR-IXPWINDi_r2_v1.2.,2014-09-01 09:49:00,
2014-09-01 05:54:00,70.6,70.2,29.92,SW,214,5.0,7.0,99,0.00,,,0.00,0,HR-IXPWINDi_r2_v1.2.,2014-09-01 09:54:00,
2014-09-01 05:59:00,70.7,70.3,29.93,SSW,210,2.0,6.0,99,0.00,,,0.00,0,HR-IXPWINDi_r2_v1.2.,2014-09-01 09:59:00,
2014-09-01 06:04:00,70.7,70.3,29.92,SW,215,0.0,6.0,99,0.00,,,0.00,0,HR-IXPWINDi_r2_v1.2.,2014-09-01 10:04:00,
2014-09-01 06:10:00,70.8,70.4,29.92,SW,215,0.0,6.0,99,0.00,,,0.00,0,HR-IXPWINDi_r2_v1.2.,2014-09-01 10:10:00,
2014-09-01 06:15:00,70.8,70.4,29.92,SW,217,0.0,7.0,99,0.00,,,0.00,0,HR-IXPWINDi_r2_v1.2.,2014-09-01 10:15:00,
2014-09-01 06:20:00,70.8,70.4,29.92,SW,216,0.0,7.0,99,0.00,,,0.00,0,HR-IXPWINDi_r2_v1.2.,2014-09-01 10:20:00,
2014-09-01 06:25:00,70.9,70.5,29.92,SW,215,0.0,7.0,99,0.00,,,0.00,0,HR-IXPWINDi_r2_v1.2.,2014-09-01 10:25:00,
2014-09-01 06:31:00,70.8,70.4,29.91,SSW,211,0.0,7.0,99,0.00,,,0.00,0,HR-IXPWINDi_r2_v1.2.,2014-09-01 10:31:00,
2014-09-01 06:36:00,70.8,70.4,29.92,SSW,211,2.0,5.0,99,0.00,,,0.00,0,HR-IXPWINDi_r2_v1.2.,2014-09-01 10:36:00,
2014-09-01 06:41:00,70.8,70.4,29.92,SW,217,5.0,5.0,99,0.00,,,0.00,0,HR-IXPWINDi_r2_v1.2.,2014-09-01 10:41:00,
2014-09-01 06:46:00,70.8,70.4,29.92,SW,222,0.0,7.0,99,0.00,,,0.00,0,HR-IXPWINDi_r2_v1.2.,2014-09-01 10:46:00,
2014-09-01 06:51:00,70.9,70.5,29.92,SW,219,0.0,7.0,99,0.00,,,0.00,0,HR-IXPWINDi_r2_v1.2.,2014-09-01 10:51:00,
2014-09-01 06:57:00,70.9,70.5,29.92,SW,229,0.0,7.0,99,0.00,,,0.00,0,HR-IXPWINDi_r2_v1.2.,2014-09-01 10:57:00,
2014-09-01 07:02:00,70.9,70.5,29.93,SW,227,0.0,7.0,99,0.00,,,0.00,0,HR-IXPWINDi_r2_v1.2.,2014-09-01 11:02:00,
2014-09-01 07:07:00,71.0,70.6,29.93,SW,219,0.0,6.0,99,0.00,,,0.00,0,HR-IXPWINDi_r2_v1.2.,2014-09-01 11:07:00,
2014-09-01 07:12:00,71.0,70.6,29.93,SW,223,0.0,7.0,99,0.00,,,0.00,5,HR-IXPWINDi_r2_v1.2.,2014-09-01 11:12:00,
2014-09-01 07:17:00,71.0,70.6,29.93,SW,221,0.0,7.0,99,0.00,,,0.00,11,HR-IXPWINDi_r2_v1.2.,2014-09-01 11:17:00,
2014-09-01 07:23:00,71.0,70.6,29.92,SW,220,0.0,7.0,99,0.00,,,0.00,23,HR-IXPWINDi_r2_v1.2.,2014-09-01 11:23:00,
2014-09-01 07:28:00,71.1,70.7,29.92,SW,220,0.0,5.0,99,0.00,,,0.00,9,HR-IXPWINDi_r2_v1.2.,2014-09-01 11:28:00,
2014-09-01 07:33:00,71.1,70.7,29.93,SW,220,0.0,5.0,99,0.00,,,0.00,18,HR-IXPWINDi_r2_v1.2.,2014-09-01 11:33:00,
2014-09-01 07:38:00,71.2,70.8,29.92,SW,220,0.0,1.0,99,0.00,,,0.00,39,HR-IXPWINDi_r2_v1.2.,2014-09-01 11:38:00,
2014-09-01 07:44:00,71.2,70.8,29.92,SW,220,0.0,5.0,99,0.00,,,0.00,40,HR-IXPWINDi_r2_v1.2.,2014-09-01 11:44:00,
2014-09-01 07:49:00,71.2,70.8,29.92,SW,217,0.0,5.0,99,0.00,,,0.00,76,HR-IXPWINDi_r2_v1.2.,2014-09-01 11:49:00,
2014-09-01 07:54:00,71.3,70.9,29.92,SW,216,0.0,5.0,99,0.00,,,0.00,46,HR-IXPWINDi_r2_v1.2.,2014-09-01 11:54:00,
2014-09-01 07:59:00,71.3,70.9,29.92,SW,216,0.0,5.0,99,0.00,,,0.00,30,HR-IXPWINDi_r2_v1.2.,2014-09-01 11:59:00,
2014-09-01 08:04:00,71.4,71.0,29.92,SSW,212,3.0,7.0,99,0.00,,,0.00,39,HR-IXPWINDi_r2_v1.2.,2014-09-01 12:04:00,
2014-09-01 08:09:00,71.4,71.0,29.93,SW,215,0.0,7.0,99,0.00,,,0.00,63,HR-IXPWINDi_r2_v1.2.,2014-09-01 12:09:00,
2014-09-01 08:15:00,71.5,71.1,29.93,SW,217,0.0,7.0,99,0.00,,,0.00,44,HR-IXPWINDi_r2_v1.2.,2014-09-01 12:15:00,
2014-09-01 08:20:00,71.6,71.2,29.93,SSW,209,0.0,7.0,99,0.00,,,0.00,39,HR-IXPWINDi_r2_v1.2.,2014-09-01 12:20:00,
2014-09-01 08:25:00,71.7,71.3,29.92,SSW,207,0.0,7.0,99,0.00,,,0.00,109,HR-IXPWINDi_r2_v1.2.,2014-09-01 12:25:00,
2014-09-01 08:30:00,71.8,71.4,29.93,SW,214,4.0,8.0,99,0.00,,,0.00,107,HR-IXPWINDi_r2_v1.2.,2014-09-01 12:30:00,
2014-09-01 08:36:00,72.0,71.9,29.93,SSW,206,0.0,8.0,100,0.00,,,0.00,192,HR-IXPWINDi_r2_v1.2.,2014-09-01 12:36:00,
2014-09-01 08:41:00,72.2,71.8,29.92,SW,214,4.0,8.0,99,0.00,,,0.00,186,HR-IXPWINDi_r2_v1.2.,2014-09-01 12:41:00,
2014-09-01 08:46:00,72.4,72.0,29.92,SSW,202,0.0,8.0,99,0.00,,,0.00,229,HR-IXPWINDi_r2_v1.2.,2014-09-01 12:46:00,
2014-09-01 08:51:00,72.4,72.3,29.92,SSW,202,4.0,8.0,100,0.00,,,0.00,171,HR-IXPWINDi_r2_v1.2.,2014-09-01 12:51:00,
2014-09-01 08:57:00,72.5,72.4,29.92,SW,221,4.0,8.0,100,0.00,,,0.00,128,HR-IXPWINDi_r2_v1.2.,2014-09-01 12:57:00,
2014-09-01 09:02:00,72.5,72.1,29.92,SW,215,0.0,8.0,99,0.00,,,0.00,279,HR-IXPWINDi_r2_v1.2.,2014-09-01 13:02:00,
2014-09-01 09:07:00,72.7,72.6,29.92,SSW,210,0.0,9.0,100,0.00,,,0.00,153,HR-IXPWINDi_r2_v1.2.,2014-09-01 13:07:00,
2014-09-01 09:12:00,72.8,72.4,29.92,SW,215,1.0,9.0,99,0.00,,,0.00,172,HR-IXPWINDi_r2_v1.2.,2014-09-01 13:12:00,
2014-09-01 09:17:00,73.0,72.6,29.92,SW,224,2.0,9.0,99,0.00,,,0.00,244,HR-IXPWINDi_r2_v1.2.,2014-09-01 13:17:00,
2014-09-01 09:23:00,72.9,72.5,29.92,SSW,213,7.0,9.0,99,0.00,,,0.00,181,HR-IXPWINDi_r2_v1.2.,2014-09-01 13:23:00,
2014-09-01 09:28:00,73.1,72.7,29.92,SSW,200,1.0,9.0,99,0.00,,,0.00,227,HR-IXPWINDi_r2_v1.2.,2014-09-01 13:28:00,
2014-09-01 09:33:00,73.8,73.4,29.92,SSW,205,3.0,9.0,99,0.00,,,0.00,279,HR-IXPWINDi_r2_v1.2.,2014-09-01 13:33:00,
2014-09-01 09:38:00,74.2,73.8,29.92,SSW,209,0.0,10.0,99,0.00,,,0.00,369,HR-IXPWINDi_r2_v1.2.,2014-09-01 13:38:00,
2014-09-01 09:43:00,74.7,74.0,29.92,South,189,3.0,10.0,98,0.00,,,0.00,309,HR-IXPWINDi_r2_v1.2.,2014-09-01 13:43:00,